KF5PJP Weather Reports


Display with metric or nautical units.
time (UTC)temp
F
wind
direction
speed
MPH
gust
MPH
rain 1hr
in
rain 24hr
in
rain mn
in
humidity
%
barometer
mb
20260510224404 80 216 2.0 5.0 0.00 0.00 0.00 58 1015.3
20260510223939 80 208 2.0 5.0 0.00 0.00 0.00 57 1015.2
20260510223352 81 237 1.0 5.0 0.00 0.00 0.00 57 1015.2
20260510222924 81 208 2.0 5.0 0.00 0.00 0.00 56 1015.0
20260510222449 81 251 2.0 3.0 0.00 0.00 0.00 56 1014.9
20260510221906 81 236 1.0 5.0 0.00 0.00 0.00 55 1014.6
20260510220925 81 242 1.0 4.0 0.00 0.00 0.00 56 1014.3
20260510220508 81 271 2.0 4.0 0.00 0.00 0.00 55 1014.4
20260510215911 81 222 1.0 4.0 0.00 0.00 0.00 55 1014.5
20260510214909 80 227 1.0 4.0 0.00 0.00 0.00 56 1014.5
20260510214439 80 234 2.0 4.0 0.00 0.00 0.00 55 1014.5
20260510213420 79 257 2.0 5.0 0.00 0.00 0.00 57 1014.7
20260510212433 78 298 3.0 8.0 0.00 0.00 0.00 58 1014.4
20260510211417 79 252 3.0 5.0 0.00 0.00 0.00 58 1014.4
20260510210426 78 237 3.0 6.0 0.00 0.00 0.00 58 1014.4
20260510205421 77 261 4.0 6.0 0.00 0.00 0.00 59 1014.4
20260510204419 76 309 3.0 7.0 0.00 0.00 0.00 64 1014.6
20260510203946 76 242 3.0 7.0 0.00 0.00 0.00 64 1014.7
20260510203352 75 275 4.0 8.0 0.00 0.00 0.00 67 1014.9
20260510202918 74 233 4.0 7.0 0.00 0.00 0.00 67 1015.2
20260510201853 74 234 4.0 8.0 0.00 0.00 0.00 68 1015.3
20260510201427 74 288 4.0 11.0 0.00 0.00 0.00 67 1015.4
20260510200859 75 254 4.0 11.0 0.00 0.00 0.00 68 1015.5
20260510200432 75 205 5.0 10.0 0.00 0.00 0.00 67 1015.6
20260510195412 76 248 4.0 8.0 0.00 0.00 0.00 67 1016.2
20260510194429 76 229 5.0 14.0 0.00 0.00 0.00 68 1016.3
20260510193419 78 208 5.0 18.0 0.00 0.00 0.00 65 1016.5
20260510192413 83 261 3.0 5.0 0.00 0.00 0.00 60 1016.2
20260510191415 84 238 2.0 5.0 0.00 0.00 0.00 58 1016.0
20260510190413 85 201 1.0 5.0 0.00 0.00 0.00 56 1015.9
20260510185359 85 235 1.0 2.0 0.00 0.00 0.00 55 1015.6
20260510184933 85 248 1.0 2.0 0.00 0.00 0.00 53 1015.5
20260510183913 86 236 1.0 2.0 0.00 0.00 0.00 52 1015.4
20260510182919 86 244 1.0 3.0 0.00 0.00 0.00 52 1015.1
20260510182432 86 195 1.0 3.0 0.00 0.00 0.00 52 1014.9
20260510181922 86 247 1.0 3.0 0.00 0.00 0.00 51 1014.9
20260510180918 87 105 0.0 3.0 0.00 0.00 0.00 53 1014.7
20260510175912 88 83 0.0 2.0 0.00 0.00 0.00 52 1014.6
20260510174912 87 232 0.0 1.0 0.00 0.00 0.00 53 1014.6
20260510174451 87 205 0.0 1.0 0.00 0.00 0.00 52 1014.6
20260510173857 86 136 0.0 2.0 0.00 0.00 0.00 51 1014.5
20260510173429 86 267 1.0 4.0 0.00 0.00 0.00 51 1014.6
20260510172947 87 292 2.0 4.0 0.00 0.00 0.00 52 1014.5
20260510172353 88 254 1.0 4.0 0.00 0.00 0.00 52 1014.4
20260510171935 88 115 0.0 3.0 0.00 0.00 0.00 52 1014.3
20260510171352 87 33 1.0 3.0 0.00 0.00 0.00 54 1014.2
20260510170937 87 263 0.0 2.0 0.00 0.00 0.00 53 1014.1
20260510170352 86 218 0.0 4.0 0.00 0.00 0.00 53 1013.9
20260510165945 86 130 1.0 4.0 0.00 0.00 0.00 55 1013.9
20260510165357 86 112 0.0 2.0 0.00 0.00 0.00 55 1013.8
20260510164945 86 63 0.0 0.0 0.00 0.00 0.00 55 1013.6
20260510164430 85 136 0.0 4.0 0.00 0.00 0.00 56 1013.6
20260510163424 85 75 0.0 4.0 0.00 0.00 0.00 57 1013.7
20260510162413 83 277 1.0 5.0 0.00 0.00 0.00 58 1013.4
20260510161420 83 286 1.0 5.0 0.00 0.00 0.00 59 1013.4
20260510160410 83 282 2.0 4.0 0.00 0.00 0.00 57 1013.4
20260510155415 82 106 1.0 3.0 0.00 0.00 0.00 60 1013.4
20260510154411 81 259 1.0 3.0 0.00 0.00 0.00 61 1013.5
20260510153423 80 281 1.0 5.0 0.00 0.00 0.00 63 1013.4
20260510152430 80 277 1.0 3.0 0.00 0.00 0.00 64 1013.5
20260510151857 79 350 1.0 3.0 0.00 0.00 0.00 64 1013.5
20260510151421 79 253 0.0 2.0 0.00 0.00 0.00 65 1013.5
20260510145939 77 240 1.0 3.0 0.00 0.00 0.00 68 1013.7
20260510144911 76 277 1.0 5.0 0.00 0.00 0.00 71 1013.8
20260510143916 74 289 0.0 4.0 0.00 0.00 0.00 73 1013.7
20260510142907 74 283 1.0 3.0 0.00 0.00 0.00 74 1014.0
20260510142438 74 289 0.0 2.0 0.00 0.00 0.00 74 1014.0
20260510141949 73 279 1.0 4.0 0.00 0.00 0.00 74 1014.2
20260510141410 73 267 1.0 4.0 0.00 0.00 0.00 74 1014.3
20260510140410 72 267 1.0 3.0 0.00 0.00 0.00 75 1014.3
20260510135408 72 288 1.0 3.0 0.00 0.00 0.00 77 1014.6
20260510134418 71 274 1.0 2.0 0.00 0.00 0.00 77 1014.7
20260510133413 70 274 0.0 2.0 0.00 0.00 0.00 79 1014.5
20260510132945 69 271 0.0 3.0 0.00 0.00 0.00 79 1014.4
20260510132358 69 271 1.0 3.0 0.00 0.00 0.00 80 1014.3
20260510131932 69 267 0.0 1.0 0.00 0.00 0.00 81 1014.3
20260510131456 68 275 0.0 1.0 0.00 0.00 0.00 82 1014.3
20260510130904 68 273 1.0 3.0 0.00 0.00 0.00 82 1014.2
20260510130434 67 269 1.0 5.0 0.00 0.00 0.00 83 1014.2
20260510125853 67 273 1.0 5.0 0.00 0.00 0.00 84 1014.0
20260510125442 67 286 2.0 4.0 0.00 0.00 0.00 84 1014.1
20260510124913 67 261 1.0 4.0 0.00 0.00 0.00 85 1014.0
20260510124451 66 269 1.0 4.0 0.00 0.00 0.00 86 1013.9
20260510123924 66 248 2.0 3.0 0.00 0.00 0.00 86 1014.3
20260510122929 66 273 2.0 5.0 0.00 0.00 0.00 86 1014.2
20260510121924 66 257 3.0 6.0 0.00 0.00 0.00 86 1014.3
20260510120429 66 237 3.0 8.0 0.00 0.00 0.00 87 1014.6
20260510120009 66 260 3.0 8.0 0.00 0.00 0.00 87 1014.7
20260510115404 66 260 4.0 8.0 0.00 0.00 0.00 87 1015.0
20260510114415 67 213 3.0 8.0 0.00 0.00 0.00 86 1015.6
20260510113936 67 263 3.0 8.0 0.00 0.00 0.00 85 1015.8
20260510113355 68 216 3.0 6.0 0.00 0.00 0.00 85 1016.1
20260510112933 68 197 2.0 9.0 0.00 0.00 0.00 85 1015.9
20260510111920 69 116 4.0 14.0 0.00 0.00 0.00 87 1016.1
20260510111446 69 136 3.0 6.0 0.00 0.00 0.00 91 1016.0
20260510110402 69 226 0.0 1.0 0.00 0.00 0.00 91 1015.0
20260510105947 68 254 0.0 1.0 0.00 0.00 0.00 91 1014.8
20260510105459 68 222 1.0 2.0 0.00 0.00 0.00 91 1014.8
20260510104855 68 254 1.0 2.0 0.00 0.00 0.00 92 1014.5
20260510104432 68 278 1.0 1.0 0.00 0.00 0.00 92 1014.6
20260510103856 68 219 0.0 2.0 0.00 0.00 0.00 92 1014.6
20260510103434 68 238 1.0 3.0 0.00 0.00 0.00 92 1014.4
20260510102944 68 243 1.0 3.0 0.00 0.00 0.00 92 1014.2
20260510102413 68 240 1.0 4.0 0.00 0.00 0.00 92 1014.0
20260510101951 68 264 1.0 4.0 0.00 0.00 0.00 92 1013.9
20260510101414 68 200 0.0 1.0 0.00 0.00 0.00 92 1013.7
20260510100418 68 257 0.0 0.0 0.00 0.00 0.00 92 1012.9
20260510095946 68 257 0.0 0.0 0.00 0.00 0.00 92 1012.9
20260510095407 68 257 0.0 0.0 0.00 0.00 0.00 92 1012.9
20260510094946 68 257 0.0 0.0 0.00 0.00 0.00 92 1012.8
20260510094401 68 257 0.0 0.0 0.00 0.00 0.00 92 1012.9
20260510093409 68 256 0.0 3.0 0.00 0.00 0.00 92 1012.7
20260510092951 68 244 1.0 2.0 0.00 0.00 0.00 92 1012.6
20260510091852 68 259 0.0 1.0 0.00 0.00 0.00 92 1012.2
20260510091419 68 250 0.0 0.0 0.00 0.00 0.00 92 1012.0
20260510090853 68 236 0.0 0.0 0.00 0.00 0.00 92 1012.0
20260510090424 68 236 0.0 0.0 0.00 0.00 0.00 92 1011.9
20260510085409 68 234 0.0 0.0 0.00 0.00 0.00 92 1011.6
20260510084936 68 234 0.0 0.0 0.00 0.00 0.00 92 1011.3
20260510083918 68 227 0.0 0.0 0.00 0.00 0.00 92 1011.7
20260510082905 68 227 0.0 0.0 0.00 0.00 0.00 91 1011.8
20260510082440 68 227 0.0 0.0 0.00 0.00 0.00 92 1011.9
20260510081357 68 227 0.0 0.0 0.00 0.00 0.00 91 1011.6
20260510080352 68 227 0.0 0.0 0.00 0.00 0.00 91 1011.0
20260510075916 69 227 0.0 0.0 0.00 0.00 0.00 91 1010.8
20260510075444 69 227 0.0 0.0 0.00 0.00 0.00 91 1010.5
20260510074854 69 227 0.0 0.0 0.00 0.00 0.00 90 1010.3
20260510074419 69 227 0.0 0.0 0.00 0.00 0.00 90 1010.1
20260510073400 69 284 0.0 1.0 0.00 0.00 0.00 90 1009.8
20260510072935 69 286 0.0 1.0 0.00 0.00 0.00 90 1009.8
20260510071925 69 202 0.0 1.0 0.00 0.00 0.00 89 1009.8
20260510070908 70 240 0.0 0.0 0.00 0.00 0.00 89 1009.6
20260510065904 70 238 0.0 0.0 0.00 0.00 0.00 88 1010.0
20260510065352 70 240 0.0 1.0 0.00 0.00 0.00 88 1010.2
20260510064852 70 277 0.0 1.0 0.00 0.00 0.00 88 1010.4
20260510064416 70 277 0.0 1.0 0.00 0.00 0.00 88 1010.5
20260510063917 70 277 0.0 1.0 0.00 0.00 0.00 88 1010.6
20260510063419 71 284 0.0 1.0 0.00 0.00 0.00 87 1010.6
20260510062859 71 284 0.0 1.0 0.00 0.00 0.00 87 1010.6
20260510062355 71 284 0.0 1.0 0.00 0.00 0.00 87 1010.6
20260510061901 71 297 0.0 1.0 0.00 0.00 0.00 87 1010.5
20260510061357 71 258 0.0 2.0 0.00 0.00 0.00 86 1010.5
20260510060854 71 259 0.0 2.0 0.00 0.00 0.00 86 1010.5
20260510060404 72 219 0.0 1.0 0.00 0.00 0.00 86 1010.4
20260510055925 72 264 0.0 1.0 0.00 0.00 0.00 86 1010.3
20260510055419 72 267 0.0 2.0 0.00 0.00 0.00 86 1010.3
20260510054920 72 254 1.0 2.0 0.00 0.00 0.00 86 1010.3
20260510054413 72 259 0.0 3.0 0.00 0.00 0.00 86 1010.3
20260510053907 72 298 1.0 3.0 0.00 0.00 0.00 86 1010.2
20260510053356 72 262 1.0 2.0 0.00 0.00 0.00 86 1010.1
20260510052856 72 276 1.0 2.0 0.00 0.00 0.00 86 1010.2
20260510052352 73 230 0.0 1.0 0.00 0.00 0.00 86 1010.2
20260510051917 73 271 0.0 2.0 0.00 0.00 0.00 87 1010.1
20260510051416 73 296 0.0 2.0 0.00 0.00 0.00 87 1010.1
20260510050906 73 242 0.0 2.0 0.00 0.00 0.00 86 1010.0
20260510050407 73 298 0.0 2.0 0.00 0.00 0.00 86 1010.0
20260510045903 74 130 0.0 1.0 0.00 0.00 0.00 86 1009.9
20260510045435 74 237 0.0 3.0 0.00 0.00 0.00 86 1010.0
20260510044411 74 284 0.0 2.0 0.00 0.00 0.00 86 1009.9
20260510043943 74 237 0.0 2.0 0.00 0.00 0.00 87 1009.9
20260510043400 74 210 0.0 2.0 0.00 0.00 0.00 86 1009.9
20260510042915 75 269 0.0 3.0 0.00 0.00 0.00 86 1010.1
20260510042449 75 277 0.0 3.0 0.00 0.00 0.00 86 1010.1
20260510041915 75 279 1.0 3.0 0.00 0.00 0.00 87 1010.3
20260510041441 75 279 1.0 3.0 0.00 0.00 0.00 87 1010.3
20260510040901 75 252 1.0 3.0 0.00 0.00 0.00 87 1010.3
20260510040434 75 277 1.0 3.0 0.00 0.00 0.00 87 1010.3
20260510040012 76 284 0.0 3.0 0.00 0.00 0.00 87 1010.3
20260510035408 76 272 1.0 3.0 0.00 0.00 0.00 87 1010.3
20260510034356 76 279 1.0 4.0 0.00 0.00 0.00 86 1010.2
20260510032918 77 264 1.0 4.0 0.00 0.00 0.00 85 1010.2
20260510031914 77 251 1.0 5.0 0.00 0.00 0.00 85 1010.0
20260510030857 77 277 1.0 4.0 0.00 0.00 0.00 84 1009.7
20260510030436 77 288 1.0 4.0 0.00 0.00 0.00 84 1009.6
20260510025855 78 281 0.0 3.0 0.00 0.00 0.00 83 1009.5
20260510025431 78 272 1.0 3.0 0.00 0.00 0.00 83 1009.5
20260510025009 78 275 1.0 3.0 0.00 0.00 0.00 82 1009.5
20260510024358 78 278 0.0 3.0 0.00 0.00 0.00 82 1009.3
20260510023930 78 277 1.0 3.0 0.00 0.00 0.00 82 1009.2
20260510022404 79 279 1.0 4.0 0.00 0.00 0.00 80 1009.1
20260510021402 79 259 1.0 3.0 0.00 0.00 0.00 79 1009.2
20260510020356 80 274 0.0 2.0 0.00 0.00 0.00 77 1009.1
20260510015927 80 248 1.0 2.0 0.00 0.00 0.00 77 1009.1
20260510014919 81 291 1.0 3.0 0.00 0.00 0.00 75 1008.8
20260510013914 81 275 2.0 3.0 0.00 0.00 0.00 73 1008.7
20260510012859 82 267 1.0 2.0 0.00 0.00 0.00 71 1008.4
20260510012437 82 290 0.0 2.0 0.00 0.00 0.00 70 1008.4
20260510011410 83 267 1.0 2.0 0.00 0.00 0.00 69 1008.2
20260510010934 83 284 0.0 0.0 0.00 0.00 0.00 68 1008.2
20260510010402 83 294 0.0 2.0 0.00 0.00 0.00 67 1008.1
20260510005400 83 286 0.0 2.0 0.00 0.00 0.00 66 1008.0
20260510004939 84 276 0.0 0.0 0.00 0.00 0.00 66 1008.0
20260510004355 84 275 0.0 1.0 0.00 0.00 0.00 66 1007.9
20260510003924 84 280 1.0 2.0 0.00 0.00 0.00 66 1007.9
20260510002909 84 270 0.0 0.0 0.00 0.00 0.00 65 1007.8
20260510001904 84 269 0.0 1.0 0.00 0.00 0.00 66 1007.7
20260510001434 84 269 0.0 2.0 0.00 0.00 0.00 65 1007.7
20260510000847 84 278 1.0 2.0 0.00 0.00 0.00 66 1007.6
20260510000420 84 291 1.0 1.0 0.00 0.00 0.00 66 1007.5
20260509235851 83 282 0.0 2.0 0.00 0.00 0.00 66 1007.6
20260509235406 84 282 1.0 2.0 0.00 0.00 0.00 65 1007.5
20260509234402 84 282 0.0 0.0 0.00 0.00 0.00 65 1007.4
20260509233401 84 283 0.0 2.0 0.00 0.00 0.00 65 1007.1
20260509232921 85 286 0.0 2.0 0.00 0.00 0.00 64 1007.1
20260509232354 85 259 1.0 2.0 0.00 0.00 0.00 63 1007.1
20260509231923 85 238 1.0 2.0 0.00 0.00 0.00 63 1007.1
20260509230853 86 256 2.0 3.0 0.00 0.00 0.00 61 1007.0
20260509230416 86 248 1.0 2.0 0.00 0.00 0.00 61 1007.1
20260509225924 87 253 1.0 2.0 0.00 0.00 0.00 58 1007.1
20260509225508 88 250 1.0 1.0 0.00 0.00 0.00 56 1007.1
20260509224904 90 164 0.0 1.0 0.00 0.00 0.00 53 1007.3